When you browse on this site, cookies collect data to enhance your experience and personalize the content and advertising you see.
Visit our Privacy Policy to learn more. By continuing to use the site, you agree to this use of cookies and data.
  • In Austria
  • List of Countries
  • For 7 days
  • Water Temperature
  • Satellite Maps
  • Weather Map
  • News
  • Weather Widgets
  • user-avatar
    Login

    Hourly Weather Roquefort-sur-Soulzon

    Today, 19 July, Friday

    Time Temperature Precipitation Wind Pressure Humidity
    00:00 +14°C° 0 mm 2 mps 715 mmHg 81%
    01:00 +14°C° 0 mm 1 mps 715 mmHg 82%
    02:00 +14°C° 0 mm 1 mps 715 mmHg 83%
    03:00 +13°C° 0 mm 1 mps 715 mmHg 84%
    04:00 +14°C° 0 mm 1 mps 715 mmHg 81%
    05:00 +15°C° 0 mm 1 mps 715 mmHg 77%
    06:00 +18°C° 0 mm 1 mps 716 mmHg 74%
    07:00 +20°C° 0 mm 1 mps 716 mmHg 65%
    08:00 +23°C° 0 mm 1 mps 716 mmHg 57%
    09:00 +25°C° 0 mm 1 mps 716 mmHg 49%
    10:00 +27°C° 0 mm 1 mps 716 mmHg 44%
    11:00 +29°C° 0 mm 1 mps 716 mmHg 39%
    12:00 +31°C° 0 mm 1 mps 716 mmHg 34%
    13:00 +31°C° 0 mm 1 mps 716 mmHg 33%
    14:00 +31°C° 0 mm 1 mps 715 mmHg 32%
    15:00 +31°C° 0 mm 1 mps 715 mmHg 31%
    16:00 +30°C° 0 mm 1 mps 715 mmHg 37%
    17:00 +28°C° 0 mm 1 mps 715 mmHg 44%
    18:00 +27°C° 0 mm 2 mps 714 mmHg 51%
    19:00 +24°C° 0 mm 2 mps 714 mmHg 60%
    20:00 +22°C° 0 mm 1 mps 714 mmHg 69%
    21:00 +19°C° 0 mm 1 mps 714 mmHg 78%
    22:00 +19°C° 0 mm 1 mps 714 mmHg 78%
    23:00 +19°C° 0 mm 1 mps 714 mmHg 78%

    Tomorrow, 20 July, Saturday

    Time Temperature Precipitation Wind Pressure Humidity
    00:00 +18°C° 0 mm 1 mps 714 mmHg 78%
    01:00 +17°C° 0 mm 2 mps 714 mmHg 82%
    02:00 +17°C° 0 mm 2 mps 714 mmHg 86%
    03:00 +17°C° 0 mm 2 mps 714 mmHg 90%
    04:00 +18°C° 0 mm 2 mps 714 mmHg 90%
    05:00 +19°C° 0 mm 2 mps 714 mmHg 91%
    06:00 +19°C° 0 mm 2 mps 715 mmHg 91%
    07:00 +21°C° 0 mm 3 mps 715 mmHg 84%
    08:00 +22°C° 0 mm 3 mps 716 mmHg 77%
    09:00 +25°C° 0 mm 3 mps 716 mmHg 70%
    10:00 +26°C° 0 mm 4 mps 716 mmHg 64%
    11:00 +27°C° 0 mm 4 mps 716 mmHg 59%
    12:00 +29°C° 0 mm 4 mps 717 mmHg 54%
    13:00 +29°C° 0 mm 4 mps 716 mmHg 54%
    14:00 +29°C° 0 mm 3 mps 716 mmHg 55%
    15:00 +29°C° 0 mm 3 mps 716 mmHg 55%
    16:00 +28°C° 0.1 mm 3 mps 716 mmHg 60%
    17:00 +27°C° 0.1 mm 3 mps 716 mmHg 65%
    18:00 +26°C° 0.1 mm 2 mps 716 mmHg 70%
    19:00 +24°C° 0.2 mm 2 mps 717 mmHg 77%
    20:00 +22°C° 0.2 mm 1 mps 717 mmHg 84%
    21:00 +20°C° 0.2 mm 1 mps 717 mmHg 91%
    22:00 +19°C° 0.1 mm 1 mps 717 mmHg 91%
    23:00 +19°C° 0.1 mm 1 mps 718 mmHg 91%

    Day after tomorrow, 21 July, Sunday

    Time Temperature Precipitation Wind Pressure Humidity
    00:00 +17°C° 0.1 mm 0 mps 718 mmHg 90%
    01:00 +16°C° 0.1 mm 0 mps 718 mmHg 90%
    02:00 +16°C° 0.1 mm 0 mps 718 mmHg 90%
    03:00 +16°C° 0.1 mm 0 mps 717 mmHg 89%
    04:00 +17°C° 0.1 mm 0 mps 718 mmHg 87%
    05:00 +18°C° 0.1 mm 0 mps 718 mmHg 85%
    06:00 +18°C° 0.1 mm 0 mps 718 mmHg 83%
    07:00 +21°C° 0 mm 0 mps 719 mmHg 74%
    08:00 +24°C° 0 mm 0 mps 719 mmHg 65%
    09:00 +27°C° 0 mm 0 mps 720 mmHg 56%
    10:00 +28°C° 0 mm 0 mps 720 mmHg 52%
    11:00 +32°C° 0 mm 1 mps 720 mmHg 48%
    12:00 +33°C° 0 mm 1 mps 720 mmHg 45%
    13:00 +33°C° 0 mm 1 mps 720 mmHg 43%
    14:00 +33°C° 0 mm 1 mps 720 mmHg 42%
    15:00 +35°C° 0 mm 2 mps 719 mmHg 41%
    16:00 +32°C° 0 mm 2 mps 719 mmHg 47%
    17:00 +31°C° 0 mm 2 mps 719 mmHg 53%
    18:00 +30°C° 0 mm 2 mps 719 mmHg 58%
    19:00 +28°C° 0 mm 1 mps 719 mmHg 67%
    20:00 +25°C° 0 mm 1 mps 719 mmHg 75%
    21:00 +21°C° 0 mm 0 mps 719 mmHg 84%
    22:00 +21°C° 0 mm 0 mps 719 mmHg 85%
    23:00 +20°C° 0 mm 0 mps 719 mmHg 86%

    22 July, Monday

    Time Temperature Precipitation Wind Pressure Humidity
    00:00 +22°C° 0 mm 1 mps 719 mmHg 87%
    01:00 +20°C° 0 mm 0 mps 719 mmHg 87%
    02:00 +19°C° 0 mm 0 mps 719 mmHg 88%
    03:00 +19°C° 0 mm 0 mps 719 mmHg 89%
    04:00 +20°C° 0 mm 0 mps 719 mmHg 85%
    05:00 +21°C° 0 mm 0 mps 719 mmHg 82%
    06:00 +22°C° 0 mm 0 mps 719 mmHg 78%
    07:00 +25°C° 0 mm 0 mps 720 mmHg 69%
    08:00 +28°C° 0 mm 0 mps 720 mmHg 59%
    09:00 +31°C° 0 mm 0 mps 720 mmHg 49%
    10:00 +34°C° 0 mm 1 mps 720 mmHg 44%
    11:00 +35°C° 0 mm 1 mps 720 mmHg 40%
    12:00 +37°C° 0 mm 1 mps 720 mmHg 35%
    13:00 +37°C° 0 mm 1 mps 720 mmHg 35%
    14:00 +36°C° 0 mm 1 mps 719 mmHg 35%
    15:00 +36°C° 0 mm 1 mps 719 mmHg 36%
    16:00 +35°C° 0.1 mm 2 mps 719 mmHg 43%
    17:00 +32°C° 0.1 mm 2 mps 718 mmHg 50%
    18:00 +31°C° 0.1 mm 2 mps 718 mmHg 57%
    19:00 +28°C° 0.2 mm 1 mps 718 mmHg 64%
    20:00 +26°C° 0.2 mm 1 mps 718 mmHg 71%
    21:00 +24°C° 0.2 mm 1 mps 718 mmHg 77%
    22:00 +24°C° 0 mm 1 mps 718 mmHg 77%
    23:00 +23°C° 0 mm 1 mps 718 mmHg 77%

    23 July, Tuesday

    Time Temperature Precipitation Wind Pressure Humidity
    00:00 +23°C° 0 mm 1 mps 718 mmHg 77%
    01:00 +23°C° 0 mm 1 mps 717 mmHg 77%
    02:00 +22°C° 0 mm 1 mps 717 mmHg 78%
    03:00 +22°C° 0 mm 1 mps 717 mmHg 79%
    04:00 +23°C° 0 mm 1 mps 717 mmHg 77%
    05:00 +23°C° 0 mm 1 mps 717 mmHg 75%
    06:00 +24°C° 0 mm 1 mps 717 mmHg 73%
    07:00 +27°C° 0 mm 1 mps 717 mmHg 63%
    08:00 +30°C° 0 mm 1 mps 718 mmHg 52%
    09:00 +33°C° 0 mm 1 mps 718 mmHg 42%
    10:00 +35°C° 0 mm 2 mps 718 mmHg 38%
    11:00 +36°C° 0 mm 2 mps 718 mmHg 34%
    12:00 +38°C° 0 mm 2 mps 718 mmHg 31%
    13:00 +38°C° 0 mm 2 mps 717 mmHg 31%
    14:00 +37°C° 0 mm 2 mps 717 mmHg 31%
    15:00 +37°C° 0 mm 3 mps 717 mmHg 31%
    16:00 +35°C° 0.2 mm 2 mps 717 mmHg 40%
    17:00 +31°C° 0.2 mm 1 mps 716 mmHg 49%
    18:00 +29°C° 0.2 mm 1 mps 716 mmHg 58%
    19:00 +27°C° 0.2 mm 1 mps 716 mmHg 62%
    20:00 +26°C° 0.2 mm 1 mps 716 mmHg 65%
    21:00 +24°C° 0.2 mm 1 mps 716 mmHg 69%
    22:00 +24°C° 0 mm 1 mps 716 mmHg 69%
    23:00 +23°C° 0 mm 1 mps 716 mmHg 69%

    24 July, Wednesday

    Time Temperature Precipitation Wind Pressure Humidity
    00:00 +23°C° 0 mm 1 mps 716 mmHg 69%
    01:00 +21°C° 0 mm 0 mps 716 mmHg 70%
    02:00 +20°C° 0 mm 0 mps 716 mmHg 71%
    03:00 +20°C° 0 mm 0 mps 716 mmHg 72%
    04:00 +21°C° 0 mm 0 mps 716 mmHg 71%
    05:00 +22°C° 0 mm 0 mps 716 mmHg 70%
    06:00 +22°C° 0 mm 0 mps 716 mmHg 69%
    07:00 +25°C° 0 mm 0 mps 717 mmHg 58%
    08:00 +30°C° 0 mm 1 mps 717 mmHg 47%
    09:00 +33°C° 0 mm 1 mps 717 mmHg 36%
    10:00 +35°C° 0 mm 2 mps 717 mmHg 34%
    11:00 +36°C° 0 mm 2 mps 717 mmHg 31%
    12:00 +37°C° 0 mm 3 mps 717 mmHg 28%
    13:00 +37°C° 0 mm 3 mps 716 mmHg 28%
    14:00 +37°C° 0 mm 3 mps 716 mmHg 28%
    15:00 +37°C° 0 mm 4 mps 716 mmHg 28%
    16:00 +35°C° 0 mm 3 mps 716 mmHg 35%
    17:00 +33°C° 0 mm 3 mps 715 mmHg 41%
    18:00 +30°C° 0 mm 2 mps 715 mmHg 47%
    19:00 +28°C° 0 mm 2 mps 715 mmHg 52%
    20:00 +26°C° 0 mm 2 mps 715 mmHg 56%
    21:00 +23°C° 0 mm 1 mps 715 mmHg 60%
    22:00 +23°C° 0 mm 1 mps 715 mmHg 60%
    23:00 +23°C° 0 mm 1 mps 715 mmHg 59%
    Show more